Weather in Volochanka

Russia / Krasnoyarsk Krai     70°58′33″N   94°32′28″E
temp.,
°C
wind,
m/s
gust,
m/s
humid.,
%
clouds,
%
prec.,
mm/h
press.,
hPa
HPBL,
m
16 april, fri
fri1601:00−19n61097100 0.4 990258
04:00−20nw5998100 0.8 991303
07:00−21wnw7998100 1.6 994327
10:00−21wnw81195100 0.6 996490
13:00−19wnw91292100 0.9 998678
16:00−18wnw91293100 0.3 1000788
19:00−19w91294100 0.6 1002626
22:00−20w91396100 0.3 1003543
17 april, sat
sat1701:00−20w91396100 0.7 1004502
04:00−21w91396100 0.3 1006468
07:00−21w91396100 0.6 1007466
10:00−19w81294100 0.3 1009485
13:00−18w81089100 0.4 1010592
16:00−17w81089100 0.1 1012628
19:00−17w71193100 0.3 1014540
22:00−19w71195100 0.2 1015409
18 april, sun
sun1801:00−20w71195100 0.3 1016351
04:00−21w61195100 0.0 1018302
07:00−20w6996100 0.2 1019302
10:00−19w6791100 0.1 1020355
13:00−17w5689100 0.1 1021428
16:00−16w568797 0.0 1022433
19:00−16w579293 0.1 1023292
22:00−19w499678 0.0 1023143
19 april, mon
mon1901:00−20w5996100 0.0 1024167
04:00−20w489683 0.0 1024149
07:00−19w489575 0.0 1024198
10:00−16w579068 0.0 1024283
13:00−14w568784 0.0 1024381
16:00−14w568547 0.0 1024356
19:00−16w3692100 0.0 1024131
22:00−17w3692100 0.0 1024131
20 april, tue
tue2001:00−17wsw3693100 0.0 1023102
04:00−17wsw3495100 0.1 102383
07:00−16wsw3491100 0.1 1023135
10:00−13wsw238268 0.0 1022245
13:00−11wsw22775 0.0 1022339
16:00−10wsw12775 0.0 1022347
19:00−13w119015 0.0 102210
22:00−20nw111005 0.0 10229